Regional Weather Roundup
Issued by NWS

Home | Current Version | Previous Version | Text Only | Print | Product List | Glossary On
Versions: 1 2 3 4 5 6 7 8 9 10 11 12 13 14 15 16 17 18 19 20 21 22 23 24 25 26 27
000
ASUS46 KPQR 170710
RWROR

OREGON REGIONAL WEATHER ROUNDUP
NATIONAL WEATHER SERVICE PORTLAND OR
1100 PM PST TUE JAN 16 2018

NOTE: "FAIR" INDICATES FEW OR NO CLOUDS BELOW 12,000 FEET WITH
NO SIGNIFICANT WEATHER AND/OR OBSTRUCTIONS TO VISIBILITY.

ORZ001>013-170800-
NORTHWEST OREGON


CITY           SKY/WX    TMP DP  RH WIND       PRES   REMARKS
ASTORIA        CLOUDY    50  42  74 E8        30.09F
TILLAMOOK      CLOUDY    43  43 100 S3        30.12F
NEWPORT        CLOUDY    46  43  87 CALM      30.15S
PORTLAND       CLOUDY    46  41  82 E10       30.16F
VANCOUVER WA   CLOUDY    41  40  96 CALM      30.16F
SCAPPOOSE      CLOUDY    40  39  97 CALM      30.16F
HILLSBORO      CLOUDY    41  39  93 CALM      30.15F
AURORA         CLOUDY    44  41  89 CALM      30.16S
MCMINNVILLE    CLOUDY    45  43  93 CALM      30.15F
SALEM          CLOUDY    42  40  92 CALM      30.14F
CORVALLIS      CLOUDY    42  42 100 CALM      30.16F
EUGENE         FOG       40  40 100 SW3       30.16F VSB 1/2
$$

ORZ021-028-170800-
SOUTHWEST OREGON


CITY           SKY/WX    TMP DP  RH WIND       PRES   REMARKS
NORTH BEND     CLOUDY    47  46  97 SE8       30.17S
BROOKINGS      CLOUDY    51  46  83 SE5       30.19S
ROSEBURG       MOCLDY    42  42 100 CALM      30.17F FOG
SEXTON SUMMIT  CLOUDY    41  37  86 S13       30.15F
GRANTS PASS    FOG       43  43 100 CALM      30.24S VSB 1/4
MEDFORD        MOCLDY    41  40  96 CALM      30.20S
$$

ORZ014>016-041-170800-
COLUMBIA GORGE


CITY           SKY/WX    TMP DP  RH WIND       PRES   REMARKS
TROUTDALE      CLOUDY    48  41  76 E20       30.16F
HOOD RIVER     CLOUDY    41  39  93 CALM      30.28S
THE DALLES     CLOUDY    40  38  93 CALM      30.29F
$$

ORZ029>031-041-044-049-050-061>064-502-503-505>511-170800-
EASTERN OREGON


CITY           SKY/WX    TMP DP  RH WIND       PRES   REMARKS
MADRAS         CLOUDY   N/A N/A N/A CALM      30.23F HAZE
REDMOND        CLOUDY    30  29  96 CALM      30.19F
BEND           MOCLDY    36  30  80 S5        30.21F
PRINEVILLE     MOCLDY    37  34  87 CALM      30.21F
KLAMATH FALLS  CLOUDY    36  33  89 CALM      30.24S
LAKEVIEW       MOCLDY    27  26  96 W3        30.28R
HERMISTON      MOCLDY    35  34  96 SE3       30.26F
PENDLETON      PTCLDY    37  34  89 E7        30.25S
JOHN DAY       CLEAR     35  30  81 SE7       30.27R
MEACHAM        CLEAR     35  30  82 VRB3      30.24S
LA GRANDE      CLOUDY    38  33  82 SE9G18    30.33R
BAKER CITY     CLOUDY    35  31  85 E5        30.33S
BURNS          CLEAR     25  25 100 SW5       30.30R
ROME             N/A     35  35 100 NE8       30.29F
ONTARIO        PTCLDY    32  31  96 CALM      30.39F
$$




USA.gov is the U.S. government's official web portal to all federal, state and local government web resources and services.